Location: Marcé
(47.5801°N, 0.3280°W)
Time: 21:18:27
(UTC+01:00)

Vanguard 1 - Pass Details

Date: 04 December 2021
Orbit: 652 x 3830 km, 34.2° (Epoch: 16 January)

Event Time Altitude Azimuth Distance (km) Brightness Sun altitude
Rises 23:26:41 0° 214° (SSW) 6,855 14.3 -59.6°
Enters shadow 23:28:53 - 210° (SSW) 6,526 14.1 -59.8°
Reaches altitude 10° 23:31:21 10° 206° (SSW) 6,185 - -60.1°
Maximum altitude 23:49:44 38° 147° (SSE) 4,923 - -61.9°
Drops below altitude 10° 00:09:00 10° 90° (E) 6,524 - -63.4°
Exits shadow 00:10:20 - 88° (E) 6,710 14.2 -63.4°
Sets 00:14:02 0° 83° (E) 7,256 14.4 -63.7°
